Weather observations for the past three days for
San Luis Obispo, San Luis Obispo County-Mc Chesney Field
Imperial (Metric)
Date Time (pdt) Wind (mph) Vis. (mi.) Weather Sky Cond. Temperature (ºF) Relative Humidity Wind Chill (°F) Heat Index (°F) Pressure Precipitation (in)
Air Dwpt 6 hour altimeter (in) sea level (mb) 1 hr 3 hr 6 hr
Max. Min.
24 07:56 Vrbl 3 10.00 Fair CLR 69.1 57 66% 30.05 1017.2
24 06:56 Calm 10.00 Partly Cloudy SCT150 66 55.9 70% 30.03 1016.6
24 05:56 Calm 10.00 Partly Cloudy SCT150 64 55 73% 30.01 1015.8
24 04:56 Calm 10.00 Fair CLR 64.9 55.9 66.9 63 73% 30 1015.4
24 03:56 Calm 10.00 Fair CLR 64 55.9 75% 29.98 1014.9
24 02:56 NW 3 10.00 Fair CLR 63 55.9 78% 29.98 1014.9
24 01:56 NW 3 10.00 Fair CLR 64 55.9 75% 29.98 1014.9
24 00:56 Calm 10.00 Fair CLR 66.9 55.9 68% 29.98 1014.8
23 23:56 Calm 10.00 Fair CLR 66 55.9 70% 29.98 1014.7
23 22:56 NW 5 10.00 Fair CLR 64.9 57 86 64.9 76% 29.97 1014.6
23 21:56 NW 6 10.00 Fair CLR 66.9 55.9 68% 29.96 1014.3
23 20:56 NW 3 10.00 Fair CLR 68 57 68% 29.94 1013.5
23 19:56 NW 8 10.00 Fair CLR 71.1 57 61% 29.92 1012.8
23 18:56 W 7 10.00 Fair CLR 80.1 55.9 44% 80 29.9 1012.3
23 17:56 W 7 10.00 Fair CLR 82.9 57 41% 82 29.9 1012.3
23 16:56 NW 8 10.00 Fair CLR 86 57 91 82.9 37% 85 29.9 1012.1
23 15:56 W 7 10.00 Fair CLR 88 57.9 36% 87 29.9 1012.2
23 14:56 W 8 10.00 Fair CLR 84.9 57.9 40% 84 29.92 1012.7
23 13:56 W 9 10.00 Fair CLR 88 57 35% 87 29.91 1012.3
23 12:56 NW 9 10.00 Fair CLR 89.1 57.9 35% 88 29.9 1012.1
23 11:56 Vrbl 5 10.00 Fair CLR 88 57.9 36% 87 29.9 1012.1
23 10:56 Calm 10.00 Fair CLR 84 55.9 84 59 38% 83 29.91 1012.5
23 09:56 S 3 10.00 Fair CLR 77 57 50% 79 29.91 1012.5
23 08:56 Calm 10.00 Fair CLR 72 55 55% 29.92 1012.8
23 07:56 Calm 10.00 Fair CLR 64.9 54 68% 29.91 1012.6
23 06:56 Calm 10.00 Fair CLR 61 53.1 75% 29.9 1012.3
23 05:56 Calm 10.00 Fair CLR 60.1 52 75% 29.89 1012.0
23 04:56 Calm 10.00 Fair CLR 60.1 53.1 62.1 57.9 78% 29.88 1011.4
23 03:56 NW 5 10.00 Fair CLR 59 52 78% 29.87 1011.0
23 02:56 Calm 10.00 Fair CLR 59 52 78% 29.85 1010.6
23 01:56 NW 5 10.00 Fair CLR 60.1 52 75% 29.85 1010.5
23 00:56 Calm 10.00 Fair CLR 61 53.1 75% 29.85 1010.3
22 23:56 NW 3 10.00 Fair CLR 60.1 53.1 78% 29.84 1010.3
22 22:56 Calm 10.00 Fair CLR 61 53.1 84 61 75% 29.85 1010.7
22 21:56 Calm 10.00 Fair CLR 62.1 54 75% 29.86 1010.8
22 20:56 W 5 10.00 Fair CLR 64 54 70% 29.85 1010.5
22 19:56 W 7 10.00 Fair CLR 66.9 54 63% 29.83 1010.1
22 18:56 NW 9 10.00 Fair CLR 75 55 50% 78 29.83 1009.8
22 17:56 NW 10 10.00 Fair CLR 77 55 47% 78 29.83 1009.7
22 16:56 NW 7 10.00 Fair CLR 84 55.9 87.1 75.9 38% 83 29.83 1009.7
22 15:56 W 8 10.00 Fair CLR 86 57 37% 85 29.84 1010.2
22 14:56 W 9 10.00 Fair CLR 84.9 57 39% 84 29.86 1010.6
22 13:56 NW 10 10.00 Fair CLR 82.9 57 41% 82 29.87 1011.1
22 12:56 W 7 10.00 Fair CLR 84.9 57.9 40% 84 29.87 1011.1
22 11:56 W 6 10.00 Fair CLR 81 57 44% 81 29.88 1011.7
22 10:56 Calm 10.00 Fair CLR 75.9 55 75.9 57.9 48% 78 29.89 1012.0
22 09:56 Calm 10.00 Fair CLR 69.1 54 59% 29.9 1012.4
22 08:56 Vrbl 3 10.00 Mostly Cloudy BKN007 63 54 73% 29.91 1012.6
22 07:56 S 3 10.00 Overcast OVC004 59 53.1 81% 29.91 1012.6
22 06:56 W 3 3.00 Overcast with Haze OVC003 57.9 53.1 84% 29.89 1012.1
22 05:56 S 3 10.00 Overcast OVC004 59 53.1 81% 29.89 1012.0
22 04:56 SE 3 9.00 Overcast OVC004 59 54 60.1 57.9 83% 29.89 1012.0
22 03:56 S 6 9.00 Overcast OVC004 59 53.1 81% 29.89 1011.9
22 02:56 S 5 10.00 Overcast OVC005 60.1 53.1 78% 29.89 1012.0
22 01:56 S 3 10.00 Overcast OVC005 60.1 54 80% 29.9 1012.3
22 00:56 Calm 10.00 Overcast OVC005 59 54 83% 29.91 1012.6
21 23:56 Calm 10.00 Mostly Cloudy BKN005 59 53.1 81% 29.92 1012.9
21 22:56 NW 3 10.00 Partly Cloudy SCT004 59 53.1 77 59 81% 29.92 1013.1
21 21:56 NW 6 10.00 Fair CLR 59 53.1 81% 29.92 1013.1
21 20:56 NW 8 10.00 Fair CLR 60.1 53.1 78% 29.91 1012.7
21 19:56 NW 9 10.00 Fair CLR 62.1 53.1 73% 29.91 1012.5
21 18:56 NW 13 10.00 Fair CLR 68 54 61% 29.89 1011.9
21 17:56 NW 13 10.00 Fair CLR 73 55 53% 29.89 1011.9
21 16:56 NW 12 10.00 Fair CLR 77 55.9 82 71.1 48% 79 29.9 1012.1
21 15:56 NW 10 10.00 Fair CLR 79 55.9 45% 80 29.91 1012.5
21 14:56 NW 13 10.00 Fair CLR 78.1 55 45% 79 29.92 1012.8
21 13:56 NW 12 10.00 Fair CLR 81 55.9 42% 81 29.93 1013.1
21 12:56 NW 7 10.00 Fair CLR 77 55 47% 78 29.93 1013.4
21 11:56 NW 12 10.00 Fair CLR 75 55 50% 78 29.94 1013.5
21 10:56 NW 16 10.00 Fair CLR 72 55 73 59 55% 29.95 1013.9
21 09:56 NW 7 10.00 Fair CLR 69.1 55 61% 29.95 1014.0
21 08:56 NW 8 10.00 Fair CLR 64 54 70% 29.96 1014.2
Date Time (pdt) Wind (mph) Vis. (mi.) Weather Sky Cond. Air Dwpt Max. Min. Relative Humidity Wind Chill (°F) Heat Index (°F) altimeter (in) sea level (mb) 1 hr 3 hr 6 hr
6 hour
Temperature (ºF) Pressure Precipitation (in)